| time (UTC) | temp F | wind direction | speed MPH | gust MPH | rain 1hr in | rain 24hr in | rain mn in | humidity % | barometer mb |
| 20260504194516 | 62 | 0.0 | 2.0 | 0.00 | 0.00 | 0.00 | 75 | 1019.7 | |
| 20260504194016 | 62 | 293 | 2.0 | 3.0 | 0.00 | 0.00 | 0.00 | 75 | 1019.6 |
| 20260504193516 | 62 | 270 | 3.0 | 3.0 | 0.00 | 0.00 | 0.00 | 75 | 1019.6 |
| 20260504193017 | 61 | 270 | 2.0 | 3.0 | 0.00 | 0.00 | 0.00 | 75 | 1019.6 |
| 20260504192536 | 61 | 270 | 2.0 | 3.0 | 0.00 | 0.00 | 0.00 | 76 | 1019.4 |
| 20260504192016 | 61 | 293 | 2.0 | 4.0 | 0.00 | 0.00 | 0.00 | 76 | 1019.4 |
| 20260504191516 | 61 | 270 | 2.0 | 3.0 | 0.00 | 0.00 | 0.00 | 76 | 1019.5 |
| 20260504191017 | 61 | 270 | 1.0 | 2.0 | 0.00 | 0.00 | 0.00 | 76 | 1019.4 |
| 20260504190536 | 62 | 0.0 | 1.0 | 0.00 | 0.00 | 0.00 | 76 | 1019.4 | |
| 20260504190016 | 62 | 0.0 | 1.0 | 0.00 | 0.00 | 0.00 | 76 | 1019.4 | |
| 20260504185516 | 62 | 0.0 | 2.0 | 0.00 | 0.00 | 0.00 | 76 | 1019.4 | |
| 20260504185036 | 62 | 0.0 | 2.0 | 0.00 | 0.00 | 0.00 | 75 | 1019.4 | |
| 20260504184536 | 63 | 0.0 | 2.0 | 0.00 | 0.00 | 0.00 | 75 | 1019.3 | |
| 20260504184016 | 63 | 270 | 1.0 | 2.0 | 0.00 | 0.00 | 0.00 | 75 | 1019.3 |
| 20260504183517 | 63 | 248 | 1.0 | 2.0 | 0.00 | 0.00 | 0.00 | 75 | 1019.3 |
| 20260504183016 | 63 | 0.0 | 2.0 | 0.00 | 0.00 | 0.00 | 75 | 1019.2 | |
| 20260504182556 | 63 | 180 | 1.0 | 1.0 | 0.00 | 0.00 | 0.00 | 74 | 1019.1 |
| 20260504182016 | 64 | 180 | 1.0 | 2.0 | 0.00 | 0.00 | 0.00 | 74 | 1019.0 |
| 20260504181516 | 64 | 158 | 1.0 | 3.0 | 0.00 | 0.00 | 0.00 | 74 | 1019.0 |
| 20260504181016 | 64 | 158 | 1.0 | 2.0 | 0.00 | 0.00 | 0.00 | 74 | 1019.1 |
| 20260504180517 | 64 | 0.0 | 2.0 | 0.00 | 0.00 | 0.00 | 74 | 1018.9 | |
| 20260504180016 | 64 | 0.0 | 2.0 | 0.00 | 0.00 | 0.00 | 74 | 1018.8 | |
| 20260504175556 | 64 | 180 | 1.0 | 2.0 | 0.00 | 0.00 | 0.00 | 73 | 1019.0 |
| 20260504175016 | 64 | 135 | 2.0 | 4.0 | 0.00 | 0.00 | 0.00 | 73 | 1019.0 |
| 20260504174516 | 64 | 113 | 2.0 | 4.0 | 0.00 | 0.00 | 0.00 | 73 | 1019.0 |
| 20260504174016 | 65 | 135 | 2.0 | 5.0 | 0.00 | 0.00 | 0.00 | 73 | 1018.9 |
| 20260504173516 | 65 | 135 | 3.0 | 5.0 | 0.00 | 0.00 | 0.00 | 73 | 1019.0 |
| 20260504173016 | 65 | 135 | 3.0 | 5.0 | 0.00 | 0.00 | 0.00 | 72 | 1018.9 |
| 20260504172516 | 65 | 113 | 2.0 | 5.0 | 0.00 | 0.00 | 0.00 | 72 | 1018.8 |
| 20260504172036 | 65 | 113 | 3.0 | 5.0 | 0.00 | 0.00 | 0.00 | 72 | 1018.9 |
| 20260504171516 | 65 | 113 | 3.0 | 5.0 | 0.00 | 0.00 | 0.00 | 71 | 1018.9 |
| 20260504171016 | 65 | 135 | 2.0 | 4.0 | 0.00 | 0.00 | 0.00 | 71 | 1018.7 |
| 20260504170516 | 65 | 113 | 3.0 | 5.0 | 0.00 | 0.00 | 0.00 | 71 | 1018.7 |
| 20260504151038 | 67 | 135 | 7.0 | 10.0 | 0.00 | 0.00 | 0.00 | 58 | 1018.8 |
| 20260504150518 | 68 | 113 | 6.0 | 9.0 | 0.00 | 0.00 | 0.00 | 56 | 1018.8 |
| 20260504141038 | 69 | 135 | 5.0 | 10.0 | 0.00 | 0.00 | 0.00 | 44 | 1019.3 |
| 20260504140518 | 69 | 113 | 3.0 | 7.0 | 0.00 | 0.00 | 0.00 | 42 | 1019.3 |
| 20260504130518 | 70 | 45 | 4.0 | 9.0 | 0.00 | 0.00 | 0.00 | 54 | 1019.8 |
| 20260504110517 | 71 | 90 | 4.0 | 9.0 | 0.00 | 0.00 | 0.00 | 52 | 1020.4 |
| 20260504100517 | 70 | 90 | 6.0 | 11.0 | 0.00 | 0.00 | 0.00 | 50 | 1020.8 |
| 20260504081517 | 68 | 90 | 5.0 | 11.0 | 0.00 | 0.00 | 0.00 | 56 | 1020.9 |
| 20260504081017 | 69 | 68 | 6.0 | 11.0 | 0.00 | 0.00 | 0.00 | 56 | 1020.9 |
| 20260504080517 | 69 | 90 | 4.0 | 10.0 | 0.00 | 0.00 | 0.00 | 46 | 1020.9 |
| 20260504050517 | 64 | 315 | 2.0 | 4.0 | 0.00 | 0.00 | 0.00 | 43 | 1020.2 |
| 20260504045517 | 63 | 315 | 2.0 | 4.0 | 0.00 | 0.00 | 0.00 | 43 | 1020.2 |
| 20260504045036 | 63 | 315 | 2.0 | 4.0 | 0.00 | 0.00 | 0.00 | 42 | 1020.1 |
| 20260504044517 | 63 | 338 | 2.0 | 5.0 | 0.00 | 0.00 | 0.00 | 42 | 1020.2 |
| 20260504044016 | 63 | 315 | 1.0 | 3.0 | 0.00 | 0.00 | 0.00 | 42 | 1020.2 |
| 20260504043516 | 63 | 315 | 2.0 | 3.0 | 0.00 | 0.00 | 0.00 | 42 | 1020.2 |
| 20260504043016 | 63 | 315 | 1.0 | 2.0 | 0.00 | 0.00 | 0.00 | 43 | 1020.1 |
| 20260504042516 | 62 | 315 | 1.0 | 1.0 | 0.00 | 0.00 | 0.00 | 42 | 1020.1 |
| 20260504042016 | 62 | 315 | 1.0 | 3.0 | 0.00 | 0.00 | 0.00 | 43 | 1020.0 |
| 20260504041516 | 62 | 0.0 | 2.0 | 0.00 | 0.00 | 0.00 | 43 | 1020.0 | |
| 20260504041016 | 62 | 293 | 1.0 | 3.0 | 0.00 | 0.00 | 0.00 | 43 | 1019.9 |
| 20260504040516 | 62 | 293 | 1.0 | 4.0 | 0.00 | 0.00 | 0.00 | 43 | 1019.9 |
| 20260504040036 | 62 | 293 | 2.0 | 4.0 | 0.00 | 0.00 | 0.00 | 42 | 1019.9 |
| 20260504035516 | 62 | 293 | 3.0 | 5.0 | 0.00 | 0.00 | 0.00 | 42 | 1019.9 |
| 20260504035036 | 62 | 315 | 3.0 | 4.0 | 0.00 | 0.00 | 0.00 | 42 | 1019.8 |
| 20260504034536 | 62 | 315 | 2.0 | 3.0 | 0.00 | 0.00 | 0.00 | 42 | 1019.8 |
| 20260504034016 | 62 | 293 | 2.0 | 3.0 | 0.00 | 0.00 | 0.00 | 42 | 1019.9 |
| 20260504033537 | 62 | 315 | 2.0 | 4.0 | 0.00 | 0.00 | 0.00 | 42 | 1019.9 |
| 20260504033036 | 62 | 315 | 2.0 | 3.0 | 0.00 | 0.00 | 0.00 | 42 | 1019.9 |
| 20260504032516 | 62 | 293 | 2.0 | 3.0 | 0.00 | 0.00 | 0.00 | 41 | 1019.9 |
| 20260504032017 | 62 | 315 | 2.0 | 3.0 | 0.00 | 0.00 | 0.00 | 41 | 1019.8 |
| 20260504031517 | 63 | 293 | 2.0 | 4.0 | 0.00 | 0.00 | 0.00 | 41 | 1019.9 |
| 20260504031036 | 62 | 315 | 2.0 | 3.0 | 0.00 | 0.00 | 0.00 | 41 | 1019.9 |
| 20260504030516 | 62 | 315 | 2.0 | 4.0 | 0.00 | 0.00 | 0.00 | 41 | 1020.0 |
| 20260504030016 | 62 | 315 | 2.0 | 3.0 | 0.00 | 0.00 | 0.00 | 41 | 1019.9 |
| 20260504025516 | 62 | 293 | 2.0 | 3.0 | 0.00 | 0.00 | 0.00 | 41 | 1020.0 |
| 20260504025016 | 62 | 315 | 2.0 | 3.0 | 0.00 | 0.00 | 0.00 | 41 | 1019.9 |
| 20260504024516 | 62 | 293 | 2.0 | 4.0 | 0.00 | 0.00 | 0.00 | 41 | 1020.0 |
| 20260504024016 | 62 | 338 | 2.0 | 3.0 | 0.00 | 0.00 | 0.00 | 41 | 1020.0 |
| 20260504023516 | 62 | 315 | 2.0 | 4.0 | 0.00 | 0.00 | 0.00 | 42 | 1020.0 |
| 20260504023016 | 62 | 315 | 2.0 | 3.0 | 0.00 | 0.00 | 0.00 | 42 | 1020.0 |
| 20260504022536 | 62 | 315 | 3.0 | 4.0 | 0.00 | 0.00 | 0.00 | 42 | 1020.0 |
| 20260504022016 | 62 | 338 | 2.0 | 4.0 | 0.00 | 0.00 | 0.00 | 43 | 1020.1 |
| 20260504021516 | 62 | 315 | 3.0 | 5.0 | 0.00 | 0.00 | 0.00 | 42 | 1020.1 |
| 20260504021036 | 62 | 315 | 4.0 | 5.0 | 0.00 | 0.00 | 0.00 | 42 | 1020.1 |
| 20260504020516 | 62 | 315 | 3.0 | 4.0 | 0.00 | 0.00 | 0.00 | 42 | 1020.1 |
| 20260504020016 | 62 | 315 | 3.0 | 4.0 | 0.00 | 0.00 | 0.00 | 42 | 1020.1 |
| 20260504015516 | 62 | 315 | 3.0 | 5.0 | 0.00 | 0.00 | 0.00 | 42 | 1020.1 |
| 20260504015016 | 62 | 338 | 2.0 | 3.0 | 0.00 | 0.00 | 0.00 | 42 | 1020.1 |
| 20260504014518 | 62 | 315 | 2.0 | 4.0 | 0.00 | 0.00 | 0.00 | 42 | 1020.2 |
| 20260504014018 | 62 | 315 | 3.0 | 4.0 | 0.00 | 0.00 | 0.00 | 42 | 1020.1 |
| 20260504013538 | 62 | 315 | 3.0 | 4.0 | 0.00 | 0.00 | 0.00 | 42 | 1020.1 |
| 20260504013018 | 62 | 315 | 3.0 | 4.0 | 0.00 | 0.00 | 0.00 | 41 | 1020.2 |
| 20260504012518 | 62 | 315 | 3.0 | 4.0 | 0.00 | 0.00 | 0.00 | 41 | 1020.2 |
| 20260504012018 | 62 | 315 | 2.0 | 3.0 | 0.00 | 0.00 | 0.00 | 41 | 1020.2 |
| 20260504011518 | 62 | 315 | 2.0 | 4.0 | 0.00 | 0.00 | 0.00 | 41 | 1020.2 |
| 20260504011018 | 62 | 315 | 2.0 | 3.0 | 0.00 | 0.00 | 0.00 | 41 | 1020.2 |
| 20260504010518 | 62 | 315 | 2.0 | 4.0 | 0.00 | 0.00 | 0.00 | 41 | 1020.2 |
| 20260504010018 | 62 | 315 | 2.0 | 4.0 | 0.00 | 0.00 | 0.00 | 41 | 1020.2 |
| 20260504005518 | 62 | 293 | 2.0 | 4.0 | 0.00 | 0.00 | 0.00 | 41 | 1020.2 |
| 20260504005018 | 62 | 315 | 2.0 | 3.0 | 0.00 | 0.00 | 0.00 | 41 | 1020.3 |
| 20260504004538 | 62 | 293 | 3.0 | 5.0 | 0.00 | 0.00 | 0.00 | 41 | 1020.3 |
| 20260504004017 | 62 | 315 | 3.0 | 5.0 | 0.00 | 0.00 | 0.00 | 42 | 1020.2 |
| 20260504003518 | 62 | 293 | 3.0 | 5.0 | 0.00 | 0.00 | 0.00 | 42 | 1020.3 |
| 20260504003018 | 62 | 293 | 3.0 | 5.0 | 0.00 | 0.00 | 0.00 | 42 | 1020.2 |
| 20260504002558 | 62 | 293 | 3.0 | 5.0 | 0.00 | 0.00 | 0.00 | 43 | 1020.3 |
| 20260504002017 | 62 | 293 | 3.0 | 5.0 | 0.00 | 0.00 | 0.00 | 43 | 1020.3 |
| 20260504001518 | 62 | 293 | 3.0 | 6.0 | 0.00 | 0.00 | 0.00 | 44 | 1020.3 |
| 20260504001017 | 62 | 293 | 3.0 | 5.0 | 0.00 | 0.00 | 0.00 | 44 | 1020.3 |
| 20260504000518 | 62 | 293 | 3.0 | 6.0 | 0.00 | 0.00 | 0.00 | 44 | 1020.3 |
| 20260504000017 | 62 | 293 | 3.0 | 5.0 | 0.00 | 0.00 | 0.00 | 45 | 1020.4 |
| 20260503235518 | 61 | 293 | 3.0 | 5.0 | 0.00 | 0.00 | 0.00 | 46 | 1020.4 |
| 20260503235017 | 61 | 293 | 2.0 | 6.0 | 0.00 | 0.00 | 0.00 | 47 | 1020.4 |
| 20260503234538 | 61 | 293 | 3.0 | 5.0 | 0.00 | 0.00 | 0.00 | 49 | 1020.4 |
| 20260503234017 | 62 | 293 | 2.0 | 4.0 | 0.00 | 0.00 | 0.00 | 50 | 1020.5 |
| 20260503233518 | 62 | 293 | 3.0 | 4.0 | 0.00 | 0.00 | 0.00 | 50 | 1020.6 |
| 20260503233017 | 61 | 293 | 3.0 | 5.0 | 0.00 | 0.00 | 0.00 | 50 | 1020.6 |
| 20260503232517 | 61 | 293 | 3.0 | 5.0 | 0.00 | 0.00 | 0.00 | 50 | 1020.6 |
| 20260503232017 | 61 | 293 | 3.0 | 6.0 | 0.00 | 0.00 | 0.00 | 50 | 1020.7 |
| 20260503231518 | 61 | 293 | 3.0 | 6.0 | 0.00 | 0.00 | 0.00 | 51 | 1020.7 |
| 20260503231018 | 62 | 293 | 3.0 | 6.0 | 0.00 | 0.00 | 0.00 | 50 | 1020.8 |
| 20260503230518 | 62 | 293 | 3.0 | 5.0 | 0.00 | 0.00 | 0.00 | 52 | 1020.7 |
| 20260503230018 | 61 | 293 | 3.0 | 5.0 | 0.00 | 0.00 | 0.00 | 54 | 1020.8 |
| 20260503225518 | 61 | 293 | 2.0 | 5.0 | 0.00 | 0.00 | 0.00 | 53 | 1020.9 |
| 20260503225037 | 62 | 315 | 3.0 | 5.0 | 0.00 | 0.00 | 0.00 | 54 | 1020.9 |
| 20260503224518 | 62 | 315 | 3.0 | 4.0 | 0.00 | 0.00 | 0.00 | 54 | 1021.0 |
| 20260503224017 | 62 | 293 | 3.0 | 5.0 | 0.00 | 0.00 | 0.00 | 54 | 1020.9 |
| 20260503223517 | 62 | 293 | 3.0 | 5.0 | 0.00 | 0.00 | 0.00 | 54 | 1021.0 |
| 20260503223018 | 62 | 293 | 3.0 | 5.0 | 0.00 | 0.00 | 0.00 | 54 | 1021.0 |
| 20260503222517 | 61 | 315 | 2.0 | 4.0 | 0.00 | 0.00 | 0.00 | 55 | 1021.0 |
| 20260503222017 | 61 | 315 | 3.0 | 5.0 | 0.00 | 0.00 | 0.00 | 56 | 1020.9 |
| 20260503221557 | 61 | 315 | 2.0 | 4.0 | 0.00 | 0.00 | 0.00 | 57 | 1021.0 |
| 20260503221017 | 61 | 293 | 3.0 | 4.0 | 0.00 | 0.00 | 0.00 | 57 | 1021.0 |
| 20260503220517 | 61 | 293 | 3.0 | 5.0 | 0.00 | 0.00 | 0.00 | 60 | 1020.9 |
| 20260503220017 | 61 | 315 | 2.0 | 4.0 | 0.00 | 0.00 | 0.00 | 62 | 1021.0 |
| 20260503215537 | 61 | 293 | 2.0 | 3.0 | 0.00 | 0.00 | 0.00 | 63 | 1020.9 |
| 20260503215017 | 61 | 293 | 2.0 | 5.0 | 0.00 | 0.00 | 0.00 | 64 | 1021.0 |
| 20260503214517 | 61 | 293 | 4.0 | 7.0 | 0.00 | 0.00 | 0.00 | 64 | 1021.0 |
| 20260503214017 | 61 | 293 | 4.0 | 9.0 | 0.00 | 0.00 | 0.00 | 66 | 1021.1 |
| 20260503213517 | 61 | 293 | 5.0 | 7.0 | 0.00 | 0.00 | 0.00 | 67 | 1021.1 |
| 20260503213017 | 61 | 315 | 2.0 | 3.0 | 0.00 | 0.00 | 0.00 | 68 | 1021.1 |
| 20260503212517 | 61 | 315 | 3.0 | 5.0 | 0.00 | 0.00 | 0.00 | 69 | 1021.1 |
| 20260503212017 | 61 | 315 | 3.0 | 5.0 | 0.00 | 0.00 | 0.00 | 69 | 1021.1 |
| 20260503211517 | 61 | 293 | 4.0 | 6.0 | 0.00 | 0.00 | 0.00 | 70 | 1021.1 |
| 20260503211017 | 61 | 293 | 2.0 | 4.0 | 0.00 | 0.00 | 0.00 | 70 | 1021.1 |
| 20260503210517 | 61 | 315 | 3.0 | 6.0 | 0.00 | 0.00 | 0.00 | 70 | 1021.1 |
| 20260503210017 | 61 | 293 | 3.0 | 6.0 | 0.00 | 0.00 | 0.00 | 70 | 1021.2 |
| 20260503205537 | 61 | 293 | 2.0 | 4.0 | 0.00 | 0.00 | 0.00 | 70 | 1021.2 |
| 20260503205017 | 61 | 315 | 2.0 | 4.0 | 0.00 | 0.00 | 0.00 | 70 | 1021.2 |
| 20260503204517 | 61 | 293 | 2.0 | 6.0 | 0.00 | 0.00 | 0.00 | 70 | 1021.2 |
| 20260503204017 | 61 | 293 | 3.0 | 6.0 | 0.00 | 0.00 | 0.00 | 71 | 1021.1 |
| 20260503203537 | 61 | 293 | 3.0 | 6.0 | 0.00 | 0.00 | 0.00 | 71 | 1021.1 |
| 20260503203017 | 61 | 293 | 3.0 | 6.0 | 0.00 | 0.00 | 0.00 | 71 | 1021.1 |
| 20260503202517 | 61 | 293 | 4.0 | 9.0 | 0.00 | 0.00 | 0.00 | 70 | 1021.1 |
| 20260503202017 | 61 | 293 | 4.0 | 7.0 | 0.00 | 0.00 | 0.00 | 70 | 1021.0 |
| 20260503201537 | 61 | 315 | 4.0 | 10.0 | 0.00 | 0.00 | 0.00 | 70 | 1021.0 |
| 20260503201037 | 61 | 315 | 4.0 | 9.0 | 0.00 | 0.00 | 0.00 | 71 | 1021.0 |
| 20260503200517 | 61 | 293 | 4.0 | 8.0 | 0.00 | 0.00 | 0.00 | 71 | 1020.9 |
| 20260503200017 | 61 | 293 | 3.0 | 5.0 | 0.00 | 0.00 | 0.00 | 71 | 1020.9 |
| 20260503195517 | 61 | 293 | 5.0 | 11.0 | 0.00 | 0.00 | 0.00 | 71 | 1020.9 |
| 20260503195017 | 61 | 315 | 4.0 | 9.0 | 0.00 | 0.00 | 0.00 | 71 | 1021.0 |